STARLINK-1998 (47593 NORAD) Tracking and Keplerian Element Data

This shows tracking and keplerian element data for the satellite.

Feedback or suggestion? Click here.




ElementValue
Catalog47593
NameSTARLINK-1998
Epoch Orbit175
Epoch Day105.91667824
Epoch Year2021
RAAN151.7271
Inclination53.0548
Eccentricity0.0001267
Argument of Perigee63.9582
Mean Anonmoly23.18
Mean Motion15.06368826
Decay Rate0.00016283
L11 47593U 21009AX 21105.91667824 .00016283 00000-0 11104-2 0 9991
L22 47593 53.0548 151.7271 0001267 63.9582 23.1800 15.06368826 1750

Live tracking and technical data element details for STARLINK-1998 (NORAD 47593). STARLINK-1998 can be tracked NOW for your location showing map with azimuth and elevation plus other details from your city location.

Track the satellite on the map from your city or location and see movement details for azimuth, elevation, latitude, longitude, range, height, and movement on the map or in text.







IsCatalogInMostPopularTable: catalog: 47593, numindb: 16
Update: records affected: 1



GetName: 47593 STARLINK-1998

Hit Count: updated at: Fri, 16 Apr 2021 10:36:10 GMT